Home > Weather > Goch > Past weeks

Flag for Germany Past Weather in Goch, North Rhine-Westphalia, Germany — Yesterday and Last 2 Weeks

Now
70 °F

Clear.


Feels Like: 70 °F
Forecast: 68 / 87 °F
Wind: No wind

Location: Niederrhein

Current Time: Aug 26, 2016 at 1:59:52 AM

Latest Report: Aug 25, 2016 at 11:50 PM


Visibility: 10 mi

Pressure: 29.95 "Hg

Humidity: 73%

Dew Point: 61 °F

Location of GochLocation

Past Weather in Goch — Graph

°F

Goch Temperature Yesterday

Maximum temperature yesterday: 91 °F (at 4:50 PM)
Minimum temperature yesterday: 68 °F (at 4:20 AM)
Average temperature yesterday: 80 °F

High & Low Weather Summary for the Past Weeks

 TemperatureHumidityPressure
High91 °F (Aug 25, 4:50 PM)100% (Aug 11, 5:20 AM)30.33 "Hg (Aug 11, 5:20 AM)
Low45 °F (Aug 11, 5:20 AM)33% (Aug 24, 4:50 PM)29.77 "Hg (Aug 19, 3:20 PM)
Average67 °F71%30.08 "Hg
* Reported Aug 10 11:20 PM — Aug 25 11:50 PM, Goch, Weather by CustomWeather, © 2016

Note: Actual official high and low records may vary slightly from our data, if they occured in-between our weather recording intervals... More about our weather records

Advertising

Goch Weather History for the Previous 24 Hours

Scroll right to see more
 ConditionsComfort  
Time TempWeatherWind HumidityBarometerVisibility
11:50 PM
Thu, Aug 25
70 °FClear.No wind73%29.95 "Hg10 mi
11:20 PM73 °FClear.No wind69%29.95 "Hg10 mi
10:50 PM73 °FClear.No wind65%29.95 "Hg10 mi
10:20 PM73 °FSunny.No wind65%29.95 "Hg10 mi
9:50 PM73 °FSunny.No wind69%29.95 "Hg10 mi
9:20 PM77 °FSunny.No wind61%29.95 "Hg10 mi
8:50 PM81 °FSunny.No wind54%29.95 "Hg10 mi
8:20 PM84 °FSunny.No wind48%29.95 "Hg10 mi
7:50 PM88 °FSunny.2 mph43%29.92 "Hg10 mi
7:20 PM88 °FSunny.3 mph38%29.92 "Hg10 mi
6:50 PM90 °FSunny.3 mph33%29.95 "Hg10 mi
6:20 PM90 °FPassing clouds.6 mph36%29.95 "HgN/A
5:50 PM91 °FPassing clouds.6 mph34%29.95 "HgN/A
5:20 PM91 °FPassing clouds.6 mph34%29.95 "HgN/A
4:50 PM91 °FPassing clouds.7 mph34%29.98 "HgN/A
4:20 PM90 °FPassing clouds.7 mph36%29.98 "HgN/A
3:50 PM90 °FPassing clouds.8 mph41%29.98 "HgN/A
3:20 PM90 °FPassing clouds.8 mph38%29.98 "HgN/A
2:50 PM88 °FPassing clouds.9 mph40%29.98 "HgN/A
2:20 PM90 °FPassing clouds.8 mph43%29.98 "HgN/A
1:50 PM86 °FPassing clouds.9 mph46%29.98 "HgN/A
1:20 PM86 °FPassing clouds.7 mph46%30.01 "HgN/A
12:50 PM84 °FPassing clouds.8 mph48%30.01 "HgN/A
12:20 PM84 °FSunny.9 mph48%30.01 "Hg10 mi
11:50 AM81 °FPassing clouds.10 mph54%30.01 "HgN/A
11:20 AM81 °FPassing clouds.9 mph54%30.01 "HgN/A
10:50 AM79 °FSunny.12 mph54%30.04 "Hg10 mi
10:20 AM77 °FSunny.12 mph57%30.04 "Hg10 mi
9:50 AM77 °FPassing clouds.9 mph57%30.04 "HgN/A
9:20 AM75 °FSunny.9 mph61%30.04 "Hg10 mi
8:50 AM75 °FSunny.8 mph61%30.04 "Hg10 mi
8:20 AM73 °FClear.8 mph65%30.04 "Hg10 mi
7:50 AM72 °FClear.7 mph69%30.04 "Hg10 mi
7:20 AM70 °FClear.7 mph69%30.04 "Hg10 mi
6:50 AM68 °FClear.7 mph73%30.04 "Hg10 mi
6:20 AM70 °FClear.7 mph73%30.04 "Hg10 mi
5:50 AM70 °FClear.7 mph73%30.04 "Hg10 mi
5:20 AM68 °FClear.7 mph78%30.04 "Hg10 mi
4:50 AM68 °FClear.6 mph78%30.04 "Hg10 mi
4:20 AM68 °FClear.6 mph78%30.07 "Hg10 mi
Weather by CustomWeather, © 2016

See weather overviewHow to use our weather pages